Wind_Speed
41 39 38 39 40 39 38 36 35 34 32 32 32 30 28 30 31 30 29 28 27 27 26 25 25 25 27 26 25 24 22 19 17 14 13 11 10 10 9 9 9 8 7 8 8 7 7 7 7 7 8 8 8 8 8 9 11 13 14 13 12 10 10 11 9 8 8 6 4 3 2 2 2 1 1 1 1 3 3 2 3 4 4 5 6
39 40 39 38 39 40 39 38 37 37 36 35 34 32 29 29 31 31 30 29 29 29 28 27 27 27 28 27 25 24 22 19 17 14 12 10 11 11 11 11 11 10 9 9 9 8 7 7 7 8 8 9 9 9 9 11 13 14 14 13 11 10 9 9 7 8 9 8 5 3 3 4 3 3 2 1 2 1 1 2 3 3 4 4 5
39 41 42 40 40 40 41 41 40 39 37 36 35 33 31 30 31 32 32 31 30 30 29 28 28 28 27 27 25 24 22 19 15 12 10 10 11 12 12 12 12 11 10 10 9 8 7 7 8 9 8 8 8 8 9 12 14 15 15 13 11 10 9 7 6 6 8 8 6 3 3 4 4 5 5 4 3 2 1 2 3 3 4 4 4
39 41 43 42 41 41 42 43 42 41 39 37 37 35 33 31 31 32 33 33 31 30 30 28 28 28 27 26 25 24 21 18 15 12 11 12 12 12 12 12 12 12 11 11 10 9 8 8 9 9 9 8 9 8 9 11 14 16 15 14 12 10 9 8 7 7 7 8 7 5 3 4 5 4 4 5 5 4 2 2 3 3 4 5 5
39 41 43 44 44 43 43 44 43 43 42 40 38 37 35 32 31 32 33 33 32 31 30 29 29 28 27 26 25 25 22 19 18 17 16 16 15 13 11 11 11 12 12 11 11 9 9 10 10 9 9 9 9 9 9 11 13 15 16 15 14 12 11 9 8 8 9 8 7 5 3 4 5 4 3 4 5 5 3 3 3 4 5 6 7
40 41 43 44 44 44 44 44 45 45 44 42 39 37 35 32 30 31 33 33 32 31 30 30 30 30 29 30 30 29 26 24 22 20 20 20 17 14 12 11 12 12 12 12 11 10 11 10 10 10 9 9 9 10 10 11 13 14 15 16 15 13 11 10 9 9 9 9 7 6 4 5 4 3 3 3 3 4 4 4 5 5 6 8 8
39 40 42 41 42 44 45 46 46 46 45 43 40 38 35 33 31 31 33 33 32 31 31 31 31 31 31 32 33 32 30 27 24 21 21 20 16 14 13 12 13 13 13 12 11 11 12 11 10 10 10 10 10 10 10 11 12 13 14 15 15 13 11 11 10 9 9 9 7 7 6 5 4 3 2 2 3 3 4 4 5 6 8 9 9
39 40 42 42 42 44 47 47 47 47 45 44 42 40 37 34 32 31 32 32 32 31 32 31 32 32 31 32 33 33 32 29 24 21 21 19 16 15 14 13 14 14 14 13 12 12 12 12 11 11 10 10 10 10 10 10 11 12 13 14 15 13 12 12 11 10 9 8 8 7 6 4 3 3 2 3 4 4 4 4 5 7 8 8 7
42 42 43 44 43 44 45 47 46 46 46 45 44 41 38 36 33 32 32 33 32 31 32 32 32 32 32 31 32 33 33 29 25 23 22 20 18 16 15 14 14 15 15 14 14 13 12 12 12 12 11 11 10 10 10 11 11 12 12 12 13 12 12 13 12 11 9 7 9 9 6 5 4 3 3 3 2 3 3 4 6 7 6 4 3
42 43 44 45 45 44 43 45 45 46 46 46 44 42 40 37 35 34 33 33 33 32 32 32 32 32 32 32 31 32 33 30 27 25 23 22 20 18 17 16 15 16 16 16 15 14 13 13 13 12 11 11 11 11 11 11 10 10 10 10 10 10 11 13 12 11 9 8 10 10 7 6 4 3 3 2 1 1 2 3 5 6 5 4 4
41 42 43 44 45 43 42 43 45 46 46 46 45 44 42 40 37 36 35 34 35 33 32 32 33 33 33 33 32 31 32 32 30 28 26 24 22 20 19 17 17 17 18 17 16 15 14 14 14 13 12 12 12 12 11 11 10 9 8 8 9 10 11 11 11 10 10 10 11 11 9 7 5 3 3 2 2 2 3 4 5 5 5 5 6
40 40 41 43 44 43 42 44 45 46 46 47 47 45 43 42 39 38 37 36 36 35 33 32 33 34 33 33 32 31 32 33 32 30 27 26 24 22 21 19 18 19 19 18 17 16 16 16 16 15 14 13 12 12 12 11 10 9 8 8 8 9 10 10 11 11 11 11 11 11 10 8 6 5 4 3 3 4 5 5 4 4 5 5 7
40 40 41 42 45 45 44 45 46 47 48 48 48 48 45 43 42 40 38 38 37 37 35 34 33 34 34 33 33 32 33 33 32 30 28 26 25 24 23 21 21 22 21 20 18 17 17 16 16 15 14 14 12 12 13 13 12 11 9 8 7 8 9 10 10 11 11 10 9 10 9 8 8 6 6 6 6 5 5 5 4 6 7 7 7
40 41 42 43 45 47 47 46 47 48 49 49 49 49 47 45 44 42 40 39 39 38 37 35 34 34 33 33 33 33 34 34 33 31 29 27 26 26 24 23 23 23 22 21 19 18 17 17 16 15 14 14 13 13 13 13 13 12 11 9 8 7 8 9 10 11 11 9 9 9 9 9 8 6 6 7 7 6 5 4 5 6 7 7 8
40 42 44 45 45 48 48 47 48 49 50 50 50 50 49 48 46 44 42 40 40 40 39 37 35 34 33 33 33 33 34 35 34 32 30 28 27 26 25 23 23 23 22 20 19 19 18 16 15 15 14 14 14 14 13 13 14 13 12 11 10 8 9 10 10 11 11 10 11 11 11 11 9 6 6 6 6 6 5 5 5 6 8 9 9
41 43 45 47 46 47 49 49 49 49 50 51 51 51 51 50 48 46 44 42 41 41 41 39 37 35 34 34 34 34 35 35 35 33 31 30 28 27 26 25 24 24 22 20 20 20 19 17 16 15 15 14 14 14 14 13 13 14 13 12 12 11 10 11 11 11 10 10 12 13 13 12 10 7 7 6 5 6 6 7 6 7 9 11 11
42 45 46 47 47 47 48 50 50 50 51 52 52 52 52 51 49 47 45 44 42 42 42 41 38 37 36 36 36 36 36 36 36 35 33 31 29 27 26 25 25 24 23 21 20 20 19 18 17 16 16 16 15 14 14 14 14 14 13 13 12 11 11 11 11 12 11 10 12 14 15 14 12 10 9 8 7 7 8 8 8 8 9 10 11
44 45 46 45 45 47 47 49 50 51 52 53 53 53 52 51 50 48 47 46 44 43 42 42 41 39 37 37 38 38 37 37 36 35 34 32 31 28 27 26 26 25 24 22 20 20 20 19 19 18 17 17 16 16 15 15 15 15 14 13 12 12 12 11 11 11 12 11 12 14 16 15 14 13 12 11 11 10 10 10 10 10 10 9 9
42 42 43 44 44 47 49 49 50 50 51 52 52 52 52 52 51 49 48 47 45 44 43 43 43 41 38 38 39 39 39 38 37 36 35 35 32 30 28 27 26 26 24 23 22 21 21 20 19 19 18 18 18 17 16 16 17 16 15 14 13 13 13 12 12 12 12 13 13 13 15 15 15 15 14 14 14 14 14 13 12 12 11 8 6
41 42 43 45 47 47 49 50 50 50 50 50 50 51 52 52 51 51 49 48 47 45 44 43 43 42 40 39 40 41 41 40 39 38 37 36 34 31 29 27 27 26 25 24 23 22 22 21 20 19 18 18 18 18 18 18 18 18 17 16 15 15 15 14 13 13 13 13 14 14 14 14 14 15 16 16 16 16 16 16 15 15 13 10 7
41 44 44 46 47 47 48 49 48 48 48 48 49 50 51 51 51 52 51 50 49 47 46 45 43 43 42 40 40 41 42 42 41 40 39 38 35 33 30 28 28 27 26 25 24 23 23 22 20 19 18 17 17 17 18 18 19 19 18 18 18 18 18 17 16 15 15 14 15 15 15 15 14 15 16 16 16 17 17 17 17 16 14 11 10
39 42 44 44 46 47 47 47 46 46 46 47 48 49 50 51 51 52 51 51 51 49 47 46 44 43 42 41 40 41 42 43 43 42 41 40 38 36 33 31 30 29 27 26 25 25 24 23 22 21 20 19 19 18 18 19 19 19 19 19 19 19 20 19 18 17 17 16 16 16 16 15 15 16 16 15 15 16 16 17 17 17 15 13 12
25 30 32 36 41 43 44 45 45 45 46 47 48 49 50 51 51 51 51 52 51 50 48 46 45 44 42 42 41 41 42 43 45 45 44 42 41 39 37 35 33 31 30 29 28 27 26 25 25 24 23 22 21 20 20 20 20 21 20 20 20 20 21 21 20 19 18 18 18 18 17 16 16 17 17 16 16 16 16 16 16 16 16 15 14
4 10 16 22 28 33 37 41 44 45 45 46 48 49 50 51 51 51 52 52 51 50 49 48 46 44 43 42 42 42 42 43 45 46 46 45 44 43 41 39 36 34 33 32 31 30 29 28 27 26 25 24 23 23 23 22 22 22 22 22 21 21 21 21 21 21 20 20 20 20 18 16 17 19 19 18 17 17 17 17 17 16 17 16 15
26 14 6 8 12 19 27 34 40 44 45 46 47 48 49 50 50 51 51 51 50 50 49 49 47 45 43 42 42 42 43 44 45 46 47 47 46 46 45 43 41 39 37 35 34 33 32 31 31 30 29 28 26 25 25 25 24 22 22 22 22 23 23 23 22 21 20 20 20 21 20 18 18 19 20 19 18 18 18 18 17 17 16 16 16
37 30 20 12 7 8 15 22 29 35 39 42 45 46 47 48 49 50 50 50 50 50 49 49 48 46 45 43 42 41 43 44 45 46 46 46 47 47 47 46 45 43 41 39 38 36 36 35 34 33 32 31 29 29 28 27 26 25 24 22 22 23 23 24 24 23 22 21 20 20 20 20 19 19 19 19 18 18 17 17 18 17 16 16 16
40 38 32 24 17 10 5 11 18 23 28 32 37 42 44 45 46 47 48 48 48 48 49 49 48 48 46 44 42 41 41 42 43 45 45 46 46 47 48 48 47 46 45 43 42 40 39 38 37 36 35 33 32 32 31 29 28 28 26 25 23 23 23 24 25 25 25 24 22 21 21 21 20 19 18 18 18 18 18 17 17 17 16 17 17
43 42 39 34 28 21 13 6 7 13 19 24 28 34 38 41 43 44 44 45 46 46 48 48 48 48 47 45 43 41 40 39 40 41 43 45 46 47 48 48 48 48 48 46 45 43 41 40 39 38 37 36 35 34 33 32 31 30 29 28 26 25 24 24 24 25 25 26 25 24 22 21 21 20 19 18 19 19 19 19 18 18 18 19 19
40 41 41 39 35 30 23 15 7 5 12 17 21 25 30 35 40 41 41 42 43 44 46 47 48 48 48 46 43 42 41 39 39 39 40 42 44 46 47 47 48 49 49 48 47 45 44 43 41 40 39 38 38 37 35 34 33 32 31 30 28 27 26 25 25 25 25 26 26 25 24 23 22 21 20 19 19 19 20 20 19 19 19 20 20
37 38 38 38 38 35 30 23 15 8 3 9 13 18 23 29 34 38 39 40 41 42 44 45 47 48 47 46 45 44 42 41 40 40 39 40 41 43 45 46 48 48 49 48 48 47 46 45 44 42 41 41 40 39 37 35 34 33 32 32 31 30 29 28 27 26 26 26 26 26 25 24 24 23 22 22 21 21 21 21 20 20 20 21 21
35 36 35 35 35 36 34 30 25 18 10 1 6 12 17 23 28 32 36 38 39 41 43 44 46 47 46 46 46 45 44 43 42 41 40 40 40 40 42 44 45 47 47 48 49 49 48 47 46 45 44 43 42 41 39 38 36 35 35 34 33 32 30 30 29 28 27 27 26 27 26 26 25 25 24 23 22 22 22 22 21 21 21 20 20
33 33 33 32 32 34 35 33 31 26 19 11 3 5 12 19 24 28 31 35 39 41 42 44 45 45 46 46 46 46 45 45 44 43 42 41 40 41 41 42 43 44 45 46 48 49 49 48 48 47 46 45 44 42 41 40 39 38 37 36 35 33 32 31 30 29 29 28 27 27 27 27 26 26 25 24 23 22 22 22 22 21 21 20 18
31 30 31 30 29 29 31 32 32 31 26 20 12 5 5 13 21 26 28 32 37 40 41 42 43 43 44 45 45 46 46 45 45 44 43 42 42 42 42 41 42 42 43 45 46 47 48 48 48 48 47 46 45 43 42 42 41 39 38 37 36 35 33 32 30 30 29 29 29 28 28 27 26 26 26 25 24 23 22 23 23 22 21 20 20
29 28 29 28 27 26 27 28 29 30 28 25 19 12 5 6 15 23 27 29 34 38 39 40 41 41 42 43 44 45 45 45 45 44 44 44 44 43 41 40 40 40 41 43 44 45 46 46 47 47 46 46 44 43 42 41 41 39 38 38 37 36 34 33 31 30 29 29 29 29 29 27 26 25 25 25 25 24 23 23 23 23 22 21 21
27 27 27 27 26 25 26 26 26 28 28 27 24 18 11 6 9 18 23 27 30 34 36 37 39 40 41 41 43 44 45 45 44 44 45 44 44 43 41 40 39 39 39 39 41 43 44 45 45 45 45 45 43 41 40 40 40 38 38 37 37 36 35 34 32 31 30 30 29 29 29 28 27 26 25 25 25 25 24 24 23 23 22 22 22
25 25 25 26 25 24 24 24 24 25 26 27 25 22 18 14 6 11 17 23 28 31 33 34 35 37 39 41 42 43 44 45 44 44 45 44 44 43 41 40 39 39 38 37 37 38 40 42 43 44 44 44 42 40 39 39 38 38 37 38 37 37 36 35 34 32 31 30 29 29 30 29 28 27 26 25 25 25 25 25 25 24 23 23 23
23 22 22 24 24 22 21 21 21 21 23 25 25 23 22 20 12 7 12 18 23 28 31 32 32 33 36 38 41 42 43 44 44 44 45 44 44 43 42 41 40 40 39 38 37 35 36 39 41 42 43 43 41 39 38 38 37 37 38 38 38 37 37 36 34 33 32 31 30 30 30 30 29 28 26 25 25 25 26 26 26 25 25 25 25
22 22 22 21 22 22 21 20 19 19 18 21 24 24 23 23 18 9 8 12 16 20 25 30 32 33 33 34 37 39 42 43 43 44 44 44 43 43 42 42 41 41 41 39 38 36 35 36 38 40 41 42 41 39 38 37 37 37 38 38 38 37 37 36 35 33 33 32 32 31 31 31 30 29 27 26 25 26 27 27 27 26 27 27 25
21 21 21 21 22 22 20 19 19 19 18 19 22 24 24 24 22 15 9 10 12 15 19 23 28 31 33 33 34 35 38 40 42 43 44 44 44 43 42 42 42 42 41 40 39 38 37 36 36 38 39 41 40 39 38 37 36 36 37 37 37 38 37 36 35 34 33 33 32 32 31 31 30 29 27 27 27 28 28 27 27 27 28 28 26
21 19 19 21 22 21 21 20 20 19 18 18 20 23 24 24 23 19 12 11 13 14 16 19 22 25 28 31 33 34 36 38 40 42 43 43 43 43 42 42 42 42 41 40 40 40 39 38 37 37 38 39 39 38 38 37 36 36 36 37 37 38 37 35 34 33 33 33 33 32 31 30 30 28 27 27 27 28 29 28 28 29 30 28 26
21 19 19 21 22 21 20 20 19 19 18 17 19 22 24 24 24 21 18 15 14 15 17 19 21 22 24 26 28 31 33 36 38 40 41 42 43 43 43 42 42 42 42 41 40 40 40 39 38 38 38 39 39 38 37 37 36 36 36 36 38 38 36 34 33 33 33 34 33 33 31 30 29 28 27 27 28 29 29 29 29 29 29 28 27
21 19 19 21 23 22 20 19 18 19 18 17 18 19 22 24 23 22 21 19 16 16 18 21 22 23 23 23 23 24 27 30 34 36 37 40 41 42 43 43 43 43 42 42 41 41 41 40 39 38 39 39 39 38 38 37 36 36 36 36 37 37 35 34 34 34 34 34 34 33 32 30 28 27 26 26 27 28 28 29 29 28 27 26 27
23 21 21 22 23 23 22 20 19 18 18 18 18 19 20 22 23 22 21 21 19 18 17 20 23 25 25 24 23 22 22 23 26 29 32 35 37 39 41 41 42 43 43 43 42 41 41 41 40 40 39 39 39 39 39 38 37 36 36 36 37 36 35 35 35 35 35 34 34 33 32 30 29 28 26 25 24 25 26 26 26 25 25 26 27
26 23 22 22 23 24 24 22 20 18 18 18 19 20 20 21 22 22 22 22 21 20 19 19 20 23 26 26 24 23 23 22 22 24 27 30 32 34 36 38 41 43 43 43 42 42 42 42 42 41 41 40 40 39 39 39 38 37 37 37 37 36 35 36 37 37 35 35 35 34 32 31 30 29 28 26 25 24 25 25 24 24 25 26 28
29 26 24 23 24 25 25 25 22 19 18 18 18 20 21 21 21 22 22 22 22 23 23 21 19 20 23 25 25 25 25 24 23 23 25 28 29 31 33 36 39 42 43 44 43 43 42 43 43 43 42 41 40 40 39 39 39 39 38 38 37 37 36 36 37 37 36 35 35 34 33 32 31 31 30 29 28 27 26 25 25 25 26 27 28
32 30 27 25 25 25 25 26 23 19 18 18 17 18 21 22 21 21 22 22 22 23 25 25 22 20 20 22 25 27 27 27 26 25 25 27 28 30 33 35 37 40 42 43 44 43 43 43 43 43 43 42 41 40 40 40 39 39 40 40 39 38 37 37 37 37 36 36 36 35 35 34 34 33 33 32 31 30 29 27 26 26 27 28 28
34 33 30 27 25 25 25 26 25 20 18 19 17 17 20 22 21 21 21 22 23 23 26 27 25 22 20 20 23 25 26 27 28 28 28 27 27 28 32 35 37 39 40 42 44 45 45 44 44 44 43 42 41 41 41 40 40 40 41 41 40 40 38 38 38 38 37 36 36 37 37 36 36 35 35 35 35 33 31 30 29 28 28 28 29
37 35 32 28 25 24 23 24 24 21 19 20 20 18 19 21 22 21 21 24 24 25 27 28 27 25 22 20 20 21 23 25 28 30 31 31 29 29 31 34 36 37 38 39 41 43 45 45 43 43 43 42 43 43 42 41 40 40 40 40 41 41 40 40 39 38 36 36 36 37 38 38 38 38 38 37 37 36 34 32 30 28 28 29 29
38 36 32 28 25 23 22 23 23 21 20 21 21 20 20 21 21 21 21 24 26 26 28 29 27 24 22 20 19 19 21 23 26 28 31 33 33 32 33 34 35 35 36 36 37 39 41 41 41 41 41 42 43 41 38 37 37 37 38 39 40 40 40 40 38 36 36 37 37 38 39 39 39 39 38 38 37 36 34 33 30 29 28 29 29
37 35 31 28 24 22 21 21 21 20 20 21 21 21 21 20 20 21 21 22 25 27 29 30 28 25 21 19 19 20 20 23 25 27 29 32 34 34 35 35 35 36 38 38 38 37 36 36 38 40 40 40 39 36 33 34 35 36 37 38 38 39 39 38 36 35 36 38 39 39 39 39 38 37 36 35 35 34 33 31 30 29 29 30 31
35 32 30 27 23 21 20 20 20 20 21 21 21 21 22 21 19 20 20 21 23 26 28 29 29 27 23 19 18 20 20 22 24 26 28 30 33 35 35 35 35 37 40 41 40 38 35 36 39 40 40 40 39 36 36 37 37 37 37 38 37 38 38 37 36 34 35 37 39 39 39 38 37 36 34 33 32 32 31 31 30 30 31 32 33
Wind_Direction
196 196 198 200 202 204 207 209 210 211 211 210 210 210 211 208 204 200 197 196 195 193 194 194 194 193 194 194 195 197 197 198 200 202 204 211 226 238 247 251 249 241 223 205 203 202 202 207 205 198 194 193 189 188 192 192 186 180 177 177 180 179 174 174 177 186 195 200 213 235 238 254 296 315 360 356 104 98 82 54 31 26 22 11 8
197 197 198 200 201 202 205 207 209 210 210 210 211 211 212 211 207 202 198 199 198 196 196 196 196 195 195 196 196 197 198 200 202 201 204 215 233 243 245 241 237 236 226 208 204 205 205 208 202 196 196 196 191 190 194 191 188 183 181 182 184 184 181 180 180 190 202 208 210 223 230 229 235 228 224 195 155 108 49 8 4 9 12 2 358
197 198 198 199 200 201 203 206 209 210 211 211 212 213 213 213 209 203 200 200 199 199 199 198 199 198 198 199 198 200 202 203 205 204 209 221 229 232 228 224 225 227 223 210 206 208 207 203 197 195 196 197 194 191 191 190 190 188 187 188 190 191 187 182 179 185 198 209 212 217 219 228 233 224 218 213 218 240 293 336 349 359 1 348 351
196 198 199 199 200 201 202 205 207 209 210 211 211 213 213 213 210 204 202 202 201 200 201 200 200 200 200 202 201 204 206 206 206 209 217 215 209 209 208 209 216 221 221 213 205 205 203 198 198 199 200 202 201 195 192 193 194 195 194 193 194 194 188 186 189 195 209 218 219 216 210 236 256 259 234 217 226 244 268 315 327 341 342 329 334
197 197 199 200 201 202 202 204 205 207 210 211 211 212 213 214 210 205 203 204 203 202 202 201 200 200 199 199 202 205 208 209 207 208 212 207 200 201 201 205 211 215 218 213 204 201 199 197 198 198 199 202 202 197 196 197 198 199 200 199 201 201 197 198 202 208 220 223 219 214 223 256 272 288 256 222 226 234 251 293 305 320 322 315 316
200 199 200 200 201 202 203 204 204 206 210 212 213 213 214 215 211 207 205 205 205 204 203 202 201 200 197 197 200 204 207 211 210 206 204 201 199 201 205 209 208 211 214 209 203 199 195 196 196 195 197 200 200 197 196 198 199 201 203 204 206 207 203 201 201 207 213 214 218 224 247 278 281 277 263 247 245 232 236 271 289 306 313 310 308
202 202 201 201 202 203 204 205 204 206 210 212 213 214 215 215 214 210 208 207 208 206 205 205 204 203 201 199 202 205 209 213 212 205 200 199 198 200 209 213 207 208 211 206 201 197 195 196 198 197 197 199 201 198 194 196 198 201 204 207 209 211 209 204 199 204 208 211 222 226 237 258 254 247 270 293 284 268 255 268 294 309 313 310 303
202 202 202 202 203 204 205 205 206 207 209 211 212 214 214 215 216 214 211 210 209 208 208 208 207 207 205 204 205 208 212 214 211 206 203 203 203 204 210 214 209 207 208 206 202 200 198 197 199 201 200 199 200 197 194 195 196 199 204 207 213 218 218 210 205 209 213 217 218 212 215 222 218 240 279 301 300 302 288 287 310 312 309 308 298
204 203 204 204 205 206 206 206 206 207 209 211 213 214 214 215 217 216 214 212 211 211 210 211 211 210 209 208 207 209 213 214 212 210 208 209 209 210 212 215 213 209 209 207 205 206 205 200 200 203 203 201 199 195 195 197 194 198 204 208 215 219 217 211 212 216 219 220 214 206 209 218 226 250 268 279 295 325 319 313 320 314 311 315 304
207 206 206 206 207 208 208 207 206 207 209 211 213 214 214 215 216 217 216 214 213 213 212 213 213 213 213 212 210 210 211 213 213 213 212 213 213 214 216 219 218 214 211 209 208 208 208 206 203 203 205 206 203 200 199 200 198 197 201 208 214 217 217 213 213 217 219 215 211 212 220 226 229 235 238 254 281 331 337 327 325 322 321 320 316
208 208 208 208 208 209 209 208 207 207 208 210 211 213 214 214 215 217 218 216 215 215 215 214 215 215 216 215 213 212 211 211 212 212 213 214 214 216 218 221 222 217 213 212 211 209 209 211 207 203 205 209 210 209 203 199 199 195 196 206 215 220 220 215 213 216 217 214 213 219 225 223 220 221 227 256 287 296 320 334 337 327 318 311 310
207 207 208 208 208 209 209 208 207 206 206 208 210 212 214 215 216 216 218 217 216 216 216 216 216 217 218 217 215 214 212 211 213 213 213 213 214 216 219 222 221 217 214 214 213 209 208 212 210 204 204 210 214 215 211 203 197 195 199 208 216 222 223 221 219 219 219 218 219 225 228 220 214 218 232 255 269 278 299 322 334 319 306 303 302
207 207 207 208 207 207 208 207 206 205 206 207 209 211 213 215 216 216 217 218 216 216 217 217 217 218 219 218 216 214 213 213 215 216 216 215 216 217 218 219 218 214 213 213 211 209 209 211 210 208 206 209 213 217 218 212 204 201 202 206 212 220 227 228 229 229 227 226 224 227 227 216 208 220 245 259 263 273 286 301 312 305 298 296 296
208 207 207 208 207 206 206 207 206 205 206 207 208 211 213 215 216 217 218 219 217 216 217 217 218 219 220 220 217 214 214 215 218 219 219 219 220 220 219 218 217 215 214 213 211 211 212 212 212 212 211 210 213 218 221 220 216 210 204 205 209 219 231 233 235 235 232 229 224 219 215 207 204 221 250 260 268 276 283 290 293 297 299 301 299
208 208 208 209 208 206 206 206 207 206 207 208 209 211 213 215 217 218 218 218 218 217 218 218 218 219 221 221 219 216 215 217 219 221 222 222 223 224 223 220 219 218 216 215 213 213 214 215 214 215 215 214 215 220 223 224 225 221 214 213 213 217 230 234 234 235 232 228 219 211 207 207 208 222 240 255 275 278 275 277 282 294 306 312 311
208 208 209 210 208 207 207 207 207 207 207 208 209 211 213 215 217 219 219 219 219 219 219 219 219 219 221 221 220 217 216 218 220 222 223 224 226 227 225 223 222 220 219 217 216 215 215 216 216 216 218 219 219 222 226 228 230 229 225 225 224 221 227 231 231 233 233 228 219 212 211 212 215 225 233 245 269 275 272 272 279 295 308 315 318
209 209 210 210 209 208 207 207 208 208 208 209 210 212 214 215 217 219 219 220 220 221 221 221 220 219 220 221 220 218 216 218 220 222 223 224 225 226 227 226 223 221 222 221 219 218 218 217 217 216 217 221 222 223 227 231 234 236 234 233 234 232 232 233 233 235 235 230 222 220 222 221 221 228 235 245 259 269 270 273 284 296 306 314 315
210 211 210 210 209 208 208 208 209 210 210 211 211 212 214 216 218 220 220 220 221 222 223 223 222 221 220 220 220 219 218 219 221 222 222 222 223 224 226 227 223 220 222 223 223 221 220 220 218 217 218 222 225 225 228 232 236 240 241 239 240 241 240 240 241 243 241 238 232 229 230 231 231 234 241 248 256 262 266 273 284 293 302 309 306
211 211 210 210 209 209 209 208 209 210 211 212 211 211 214 216 218 220 222 223 223 224 225 225 225 224 222 221 221 221 220 221 222 223 222 223 224 224 225 225 224 222 221 223 225 223 220 219 219 219 219 222 227 228 228 232 235 239 242 243 244 246 246 244 245 248 246 245 245 240 239 239 237 238 241 248 255 259 264 269 277 286 294 295 292
212 211 210 210 210 210 209 209 209 210 211 212 211 211 213 215 217 220 222 223 224 225 225 226 226 226 225 224 223 223 222 223 224 224 224 225 226 226 225 224 225 225 223 222 224 223 220 220 222 223 224 226 230 231 231 232 234 237 240 242 244 248 250 250 250 251 249 248 250 250 248 246 242 239 239 243 251 256 261 266 272 279 281 277 274
211 212 212 211 210 210 210 210 210 210 211 212 211 212 214 215 216 218 220 222 223 224 225 226 227 228 228 227 225 224 224 225 225 226 227 228 228 228 228 226 226 227 226 224 224 223 223 225 228 231 233 234 235 237 236 235 235 237 239 241 242 245 250 253 253 254 253 253 253 253 254 254 250 247 243 241 246 251 256 261 267 270 268 267 270
215 214 212 211 211 210 210 209 208 209 210 211 212 213 214 215 216 217 219 220 223 225 226 227 228 229 230 229 227 226 226 226 227 227 228 230 231 231 231 230 229 229 230 230 229 229 229 231 234 237 239 241 242 244 244 242 241 241 241 242 243 244 247 251 253 254 256 256 256 256 255 256 256 255 252 248 246 247 252 256 260 263 263 266 270
220 221 218 215 213 211 210 208 208 209 210 211 212 213 215 216 217 217 218 220 223 225 226 227 229 230 231 231 230 229 228 228 228 229 229 231 232 233 233 233 233 233 234 235 235 235 236 237 239 240 242 244 246 248 249 247 246 245 245 245 246 247 248 250 252 255 257 258 259 259 258 256 258 260 259 257 254 252 253 256 258 262 265 267 270
119 213 223 222 220 217 214 210 208 209 210 212 213 214 215 217 218 218 219 220 222 224 226 227 229 231 232 233 233 232 231 230 229 230 231 231 232 234 236 236 236 236 237 238 239 240 241 242 243 244 245 246 248 249 251 250 249 248 249 249 250 250 251 252 253 255 257 258 260 262 262 260 260 262 263 263 262 261 260 261 261 263 266 268 269
51 71 128 191 213 220 220 217 214 212 211 212 213 215 216 216 218 219 220 221 222 224 225 226 228 231 232 233 234 234 233 232 231 231 232 233 233 234 236 238 238 238 239 240 240 242 244 245 246 247 248 249 250 252 252 252 252 251 251 251 252 252 254 255 255 256 256 257 259 262 264 264 263 264 265 265 266 266 263 262 262 263 266 270 270
36 48 63 85 121 184 212 219 221 219 216 215 215 215 216 217 219 220 221 221 222 223 224 226 228 230 232 234 234 235 235 235 233 232 233 234 234 234 236 238 239 240 240 241 242 243 244 246 248 249 251 252 254 255 256 255 254 254 254 254 254 254 255 256 257 257 257 257 258 261 263 265 264 264 265 266 267 268 265 262 263 265 269 273 272
31 36 45 54 65 77 137 199 216 221 222 221 220 219 218 219 220 222 222 222 223 223 224 225 228 230 232 234 235 236 237 237 237 236 235 235 236 236 237 238 240 241 241 242 243 244 245 247 248 250 251 253 255 257 258 258 257 257 257 258 257 257 257 258 259 259 259 258 257 258 260 262 263 263 264 267 269 271 271 269 268 269 271 273 273
31 33 36 40 44 47 56 95 183 208 216 221 223 224 223 222 223 223 224 224 224 223 224 226 228 230 233 235 236 237 239 239 240 239 239 238 238 239 240 240 241 242 242 243 244 245 246 247 249 250 252 253 255 256 258 258 259 259 260 260 261 261 260 260 260 260 260 259 257 256 256 257 260 262 262 265 269 272 274 274 274 274 275 274 275
28 29 31 32 34 36 38 44 67 163 198 209 216 220 223 225 226 225 225 226 226 225 225 226 228 231 234 236 237 238 239 240 241 241 241 241 240 241 242 243 243 244 245 245 246 247 248 249 250 251 253 254 255 256 256 257 258 259 261 262 263 264 263 261 260 260 260 260 258 256 254 254 257 260 262 264 266 269 272 274 275 276 276 276 276
22 23 26 28 29 30 31 32 36 48 145 194 205 211 215 221 226 227 226 227 227 228 228 228 229 232 235 236 238 239 240 240 241 242 242 243 243 243 243 244 245 246 247 248 248 249 249 250 252 253 254 255 256 257 257 257 258 259 262 264 265 266 265 263 261 260 260 260 258 257 256 255 256 258 261 263 264 266 269 271 272 273 274 275 274
17 17 19 22 22 22 24 25 25 24 25 52 198 204 208 214 221 226 229 228 228 230 231 231 232 234 236 237 238 239 240 241 242 243 244 244 245 245 245 246 247 247 249 249 250 250 251 252 253 254 256 257 257 258 258 258 259 260 261 263 265 266 266 264 262 261 260 260 259 258 257 257 258 259 260 262 264 265 266 267 269 272 274 273 270
14 12 14 16 16 14 14 15 17 16 13 9 354 209 205 207 211 218 226 229 230 231 233 235 236 236 236 237 238 239 240 242 243 244 245 245 246 246 247 247 248 248 249 250 250 252 252 253 254 255 256 258 259 259 260 261 261 262 263 263 264 265 265 264 263 261 261 261 261 259 258 258 258 259 260 261 262 263 264 265 268 272 274 270 263
12 9 10 12 11 9 6 6 7 8 7 4 359 336 227 209 206 209 216 224 230 232 234 236 237 237 237 237 238 240 241 243 245 245 245 246 246 247 247 248 249 250 251 251 252 253 253 254 254 255 256 258 259 260 261 262 263 263 264 264 263 263 263 263 263 262 261 261 261 261 260 259 258 258 259 260 261 261 262 264 267 271 272 268 262
10 7 7 8 7 5 2 358 358 359 0 359 355 349 321 235 212 206 207 215 226 231 233 236 237 237 238 238 239 240 242 245 246 246 246 246 246 247 248 249 250 251 252 253 254 254 254 255 254 255 256 258 259 260 261 262 263 264 264 264 263 263 263 263 263 263 262 262 262 262 262 260 258 258 258 259 260 260 261 262 266 269 270 268 265
4 2 2 3 3 3 1 356 352 352 353 352 349 345 342 313 230 211 208 210 216 223 229 234 237 238 238 239 239 240 242 244 246 246 246 247 248 249 250 250 250 251 252 254 255 255 255 256 255 255 256 257 258 259 260 261 262 263 263 264 263 263 262 262 262 263 263 263 262 263 262 260 259 257 255 256 257 258 260 262 264 265 267 268 267
356 359 359 358 357 359 1 359 355 351 349 347 343 338 340 339 291 224 217 215 215 218 221 226 233 238 239 240 241 241 242 243 244 244 245 246 248 249 250 250 250 250 252 254 255 256 256 256 255 255 255 256 257 257 259 260 261 262 263 263 263 263 263 262 262 261 262 262 262 261 260 259 258 256 253 251 252 256 259 261 263 263 264 266 266
350 354 355 352 350 352 356 356 356 353 347 345 342 335 334 339 332 266 230 223 220 222 221 221 225 232 237 241 242 242 242 242 242 242 244 246 248 250 250 250 250 250 251 252 254 256 258 257 256 255 254 255 256 256 257 258 259 261 262 262 263 263 263 263 262 260 261 262 261 260 259 258 258 256 253 250 251 255 260 262 263 263 265 266 265
346 348 347 346 344 345 348 350 350 350 347 344 340 335 333 339 341 321 255 231 226 226 226 224 226 229 232 236 238 240 241 241 241 242 245 247 248 249 251 251 251 251 252 253 254 256 259 259 257 256 254 254 255 256 256 257 259 260 261 262 262 263 263 264 263 261 261 262 261 260 259 258 257 255 253 252 252 257 261 262 263 265 268 268 264
341 344 340 338 338 337 338 342 343 343 344 343 337 334 334 338 343 337 294 255 243 233 228 228 230 231 233 233 233 236 238 239 241 244 246 248 249 250 251 251 252 253 253 254 254 255 257 259 259 258 256 255 256 256 256 256 257 258 260 260 261 262 262 262 262 260 260 261 261 260 259 258 256 255 253 253 255 259 262 263 264 268 270 268 264
332 338 334 329 330 330 331 335 339 339 341 340 334 331 332 335 339 339 323 292 273 256 242 235 233 232 235 236 235 236 237 238 240 243 245 247 249 250 251 251 252 253 253 253 254 254 255 258 259 259 257 256 256 256 256 256 256 257 258 258 259 260 260 260 260 259 259 259 259 259 259 257 255 253 252 253 256 260 262 264 265 268 269 267 267
321 326 328 324 322 324 325 326 331 335 337 337 331 328 329 330 333 336 333 321 301 280 262 251 244 237 235 237 238 239 239 240 241 243 245 247 249 250 251 252 252 253 252 252 253 253 254 257 258 259 258 257 257 257 256 256 256 256 257 257 257 257 258 258 259 259 259 259 259 258 258 256 255 253 253 255 258 262 265 267 268 268 269 270 273
311 311 318 320 317 319 319 317 321 329 333 334 331 327 326 326 328 333 333 329 320 300 278 263 256 248 242 239 238 238 241 242 242 242 244 246 248 249 251 252 252 252 252 252 253 253 253 255 256 258 258 258 258 258 258 257 257 257 256 256 256 256 256 257 257 258 259 259 259 259 259 258 258 258 258 259 262 266 268 270 270 272 274 276 277
310 304 308 313 312 313 314 312 314 321 328 330 329 327 325 324 326 330 331 328 323 313 295 276 263 256 251 247 243 240 242 245 245 243 242 243 246 247 249 251 251 250 250 250 252 252 252 253 254 256 257 258 258 258 258 258 258 258 257 256 256 256 255 255 256 257 259 260 262 262 262 263 264 265 266 267 268 270 271 272 274 276 278 280 280
311 303 302 306 308 306 306 306 308 315 323 328 328 326 324 324 325 327 328 326 322 317 308 292 273 259 253 252 250 246 244 246 249 247 243 242 244 245 247 249 249 248 247 248 249 250 250 251 252 254 256 257 258 258 259 259 259 259 258 257 256 256 255 255 255 256 258 260 263 264 266 267 269 270 272 273 273 273 274 276 278 279 279 279 279
310 305 300 300 303 302 301 301 304 311 320 325 327 326 323 322 325 325 323 323 321 317 312 303 288 268 254 250 251 250 247 246 248 248 245 243 243 244 245 246 246 246 245 246 248 249 249 250 252 253 255 256 257 258 259 260 260 259 259 258 258 257 256 255 256 257 258 260 263 265 268 270 271 273 273 274 274 274 277 280 282 281 278 276 275
307 305 301 297 297 298 298 297 299 306 317 322 324 325 322 320 322 323 320 318 318 317 312 307 299 284 264 252 248 248 248 248 247 248 248 245 243 243 243 243 243 243 244 246 247 247 249 250 251 253 254 255 256 257 259 260 260 260 260 259 258 258 257 256 256 257 259 261 263 265 267 268 269 271 271 272 272 273 276 278 279 279 276 273 272
302 303 303 298 295 295 297 296 295 301 314 320 321 322 321 317 316 318 317 314 315 315 311 308 304 294 281 265 253 248 249 249 248 248 249 249 246 243 241 241 242 242 244 246 247 246 246 248 250 252 253 253 254 257 259 259 260 260 260 259 258 257 256 255 254 255 256 258 259 261 263 264 266 267 268 268 269 271 272 274 276 276 274 272 271
297 299 300 297 293 293 295 295 293 298 310 317 318 321 320 314 311 313 312 309 311 313 312 310 308 302 293 281 268 257 253 251 250 248 248 249 248 244 240 241 242 242 243 246 247 247 248 249 252 254 253 252 253 256 258 260 260 261 262 261 258 257 256 254 254 254 254 256 257 258 260 261 262 263 264 265 267 268 269 271 273 272 270 269 270
293 295 296 293 290 290 293 292 290 295 304 309 313 318 320 313 308 308 307 306 308 312 312 311 311 309 302 289 274 264 259 257 254 251 248 248 249 248 246 246 248 248 248 249 251 251 252 254 255 255 253 252 253 257 262 264 264 265 265 264 261 260 258 258 259 259 258 257 256 256 258 259 259 260 262 264 265 267 267 268 268 266 264 265 267
290 291 292 289 284 287 290 288 286 292 301 304 308 315 318 314 306 303 303 304 306 308 308 308 309 310 308 294 274 263 259 259 258 255 252 251 250 249 250 250 252 254 255 255 254 254 255 257 256 256 256 256 259 265 270 269 266 266 266 265 264 263 262 261 262 261 259 257 257 256 257 257 257 258 259 260 261 262 262 261 260 258 258 259 260
288 288 289 286 281 283 287 285 284 290 297 300 304 310 316 313 305 300 300 302 302 301 301 304 305 306 307 298 278 263 259 258 257 256 255 254 250 248 248 249 251 254 254 254 254 254 256 257 257 257 258 260 263 267 267 265 264 264 264 263 263 263 262 261 260 258 256 256 256 257 258 257 256 254 253 253 254 254 254 254 253 253 252 251 252
Height
1524 1527 1529 1531 1533 1535 1537 1539 1542 1544 1546 1548 1549 1551 1553 1554 1556 1557 1559 1561 1563 1564 1566 1567 1569 1570 1572 1574 1575 1577 1578 1580 1581 1582 1583 1584 1586 1586 1587 1588 1589 1589 1590 1591 1592 1593 1593 1593 1594 1594 1595 1595 1596 1596 1597 1597 1598 1598 1598 1599 1599 1599 1600 1600 1600 1601 1601 1601 1601 1601 1601 1600 1600 1600 1600 1601 1601 1601 1601 1601 1601 1601 1601 1601 1601
1523 1526 1527 1530 1531 1533 1536 1537 1540 1542 1543 1546 1548 1549 1551 1553 1555 1556 1558 1560 1561 1563 1564 1566 1568 1569 1571 1572 1575 1576 1578 1579 1580 1582 1583 1584 1585 1586 1587 1588 1589 1589 1590 1591 1592 1592 1593 1593 1594 1594 1595 1595 1596 1596 1597 1597 1598 1598 1599 1599 1599 1600 1600 1600 1601 1601 1601 1601 1601 1601 1601 1601 1601 1601 1601 1601 1601 1601 1601 1601 1601 1601 1601 1601 1601
1520 1523 1525 1527 1529 1531 1533 1535 1537 1539 1542 1544 1546 1548 1550 1551 1553 1555 1557 1558 1560 1562 1564 1565 1567 1569 1571 1573 1575 1576 1577 1579 1580 1582 1582 1583 1584 1585 1587 1588 1589 1589 1590 1591 1591 1592 1593 1593 1594 1594 1595 1595 1596 1596 1597 1597 1598 1598 1599 1599 1599 1600 1600 1600 1601 1601 1601 1601 1602 1602 1602 1601 1601 1601 1601 1601 1601 1601 1601 1601 1601 1601 1601 1601 1601
1517 1520 1523 1525 1527 1529 1530 1532 1535 1538 1540 1542 1544 1546 1548 1549 1551 1553 1555 1557 1559 1561 1563 1565 1567 1570 1571 1573 1575 1576 1577 1579 1580 1581 1582 1583 1584 1585 1586 1587 1588 1589 1590 1590 1591 1592 1593 1593 1594 1595 1595 1595 1596 1596 1597 1597 1598 1598 1599 1599 1600 1600 1600 1600 1601 1601 1601 1601 1602 1602 1602 1602 1601 1601 1601 1601 1601 1601 1601 1601 1601 1601 1601 1601 1601
1515 1517 1520 1522 1524 1525 1527 1530 1533 1535 1537 1539 1541 1544 1545 1547 1550 1552 1554 1556 1558 1560 1562 1564 1567 1569 1571 1573 1575 1576 1577 1578 1579 1580 1581 1582 1584 1585 1586 1587 1588 1589 1590 1590 1591 1592 1593 1593 1594 1594 1595 1595 1596 1596 1597 1597 1598 1598 1599 1599 1600 1600 1600 1601 1601 1601 1601 1601 1602 1602 1602 1602 1602 1601 1601 1601 1601 1601 1601 1601 1601 1601 1601 1601 1601
1514 1516 1518 1520 1522 1524 1526 1528 1530 1532 1534 1537 1540 1542 1544 1546 1549 1551 1553 1555 1557 1559 1561 1563 1565 1568 1570 1571 1572 1573 1575 1576 1577 1578 1580 1582 1583 1585 1586 1587 1588 1589 1589 1590 1591 1592 1593 1593 1594 1594 1595 1595 1596 1596 1596 1597 1598 1598 1599 1599 1600 1600 1601 1601 1601 1601 1601 1601 1602 1602 1602 1602 1602 1602 1602 1602 1601 1601 1601 1601 1601 1601 1601 1601 1601
1513 1515 1517 1519 1521 1522 1524 1525 1527 1529 1532 1535 1538 1541 1543 1545 1547 1549 1552 1553 1555 1558 1560 1562 1564 1566 1568 1569 1570 1572 1573 1574 1576 1578 1580 1581 1583 1584 1585 1586 1587 1588 1589 1590 1590 1591 1592 1593 1594 1594 1595 1595 1595 1596 1596 1597 1598 1598 1599 1599 1600 1600 1601 1601 1601 1601 1602 1602 1602 1602 1602 1603 1603 1603 1602 1602 1602 1602 1601 1601 1601 1601 1601 1600 1600
1510 1513 1515 1517 1519 1519 1521 1523 1525 1528 1531 1534 1536 1539 1541 1543 1545 1548 1550 1552 1554 1556 1558 1560 1562 1564 1566 1568 1570 1571 1572 1574 1576 1578 1580 1581 1583 1584 1585 1586 1587 1588 1589 1589 1590 1591 1592 1593 1593 1594 1594 1595 1595 1596 1596 1597 1597 1598 1599 1599 1600 1600 1601 1601 1601 1601 1602 1602 1602 1602 1603 1603 1603 1603 1603 1603 1602 1602 1602 1602 1602 1601 1601 1601 1600
1507 1509 1512 1514 1516 1517 1519 1522 1524 1527 1530 1532 1534 1537 1539 1542 1544 1546 1549 1551 1553 1555 1557 1559 1561 1563 1565 1567 1569 1570 1572 1574 1576 1577 1579 1580 1582 1583 1584 1585 1586 1587 1588 1589 1590 1591 1592 1592 1593 1594 1594 1595 1595 1596 1596 1597 1597 1598 1599 1599 1600 1600 1600 1601 1601 1601 1602 1602 1602 1603 1603 1603 1603 1603 1603 1603 1603 1603 1602 1602 1602 1601 1601 1601 1600
1504 1506 1509 1512 1514 1516 1519 1521 1524 1526 1528 1530 1533 1536 1538 1540 1542 1544 1547 1549 1552 1553 1555 1557 1559 1562 1564 1565 1567 1569 1571 1573 1575 1576 1578 1579 1581 1582 1583 1584 1585 1586 1587 1588 1589 1590 1591 1592 1593 1594 1594 1595 1595 1596 1596 1597 1597 1598 1599 1599 1600 1600 1600 1600 1601 1601 1601 1602 1602 1602 1603 1603 1603 1603 1603 1603 1603 1603 1603 1603 1602 1602 1601 1601 1601
1501 1504 1507 1510 1513 1515 1518 1520 1522 1524 1527 1529 1531 1534 1536 1538 1540 1542 1545 1547 1550 1552 1554 1556 1558 1560 1562 1564 1566 1568 1570 1572 1573 1575 1576 1578 1579 1580 1582 1583 1585 1585 1587 1588 1589 1590 1591 1592 1592 1593 1594 1594 1595 1596 1596 1597 1597 1598 1599 1599 1600 1600 1600 1600 1601 1601 1601 1601 1602 1602 1603 1603 1603 1603 1604 1604 1603 1603 1603 1603 1602 1602 1602 1601 1601
1499 1502 1505 1507 1511 1513 1515 1517 1519 1522 1524 1526 1529 1531 1533 1535 1538 1540 1542 1545 1548 1550 1552 1554 1556 1558 1560 1563 1565 1567 1569 1570 1571 1573 1574 1576 1577 1579 1581 1582 1583 1584 1586 1587 1588 1589 1590 1591 1592 1593 1593 1594 1595 1595 1596 1596 1597 1598 1598 1599 1599 1600 1600 1600 1600 1601 1601 1601 1602 1602 1603 1603 1603 1603 1604 1603 1603 1603 1603 1603 1602 1602 1602 1602 1601
1496 1499 1501 1504 1506 1508 1511 1513 1516 1519 1521 1523 1526 1528 1531 1533 1535 1538 1540 1543 1545 1548 1550 1552 1554 1556 1558 1561 1563 1566 1567 1569 1570 1572 1573 1575 1576 1578 1579 1581 1582 1583 1584 1585 1586 1588 1589 1590 1591 1592 1592 1593 1594 1595 1596 1596 1597 1597 1598 1598 1599 1600 1600 1600 1600 1601 1601 1601 1602 1602 1602 1602 1603 1603 1603 1603 1603 1603 1603 1603 1602 1602 1602 1602 1601
1493 1495 1498 1500 1502 1504 1507 1509 1512 1515 1517 1520 1523 1525 1528 1530 1532 1535 1537 1540 1543 1545 1548 1550 1551 1554 1556 1559 1562 1564 1566 1567 1569 1570 1572 1573 1575 1577 1578 1579 1581 1582 1583 1584 1585 1587 1588 1589 1590 1591 1592 1593 1594 1594 1595 1596 1596 1597 1597 1598 1599 1599 1600 1600 1600 1601 1601 1601 1602 1602 1602 1602 1603 1603 1603 1603 1603 1603 1603 1603 1603 1602 1602 1602 1601
1489 1491 1493 1495 1498 1501 1504 1507 1509 1512 1515 1517 1520 1523 1525 1527 1530 1532 1535 1537 1540 1543 1545 1547 1549 1552 1554 1557 1560 1562 1564 1566 1567 1569 1570 1572 1574 1575 1577 1578 1579 1581 1582 1584 1585 1586 1587 1589 1590 1591 1592 1593 1593 1594 1595 1595 1596 1596 1597 1598 1598 1599 1599 1600 1600 1600 1601 1601 1602 1602 1602 1602 1603 1603 1603 1603 1603 1603 1603 1603 1603 1602 1602 1601 1601
1485 1487 1489 1491 1495 1498 1501 1504 1506 1509 1512 1514 1517 1519 1521 1525 1527 1530 1533 1535 1538 1540 1542 1545 1547 1549 1552 1555 1558 1560 1562 1564 1566 1567 1569 1570 1572 1574 1575 1577 1578 1580 1582 1583 1584 1585 1587 1588 1589 1590 1591 1592 1593 1593 1594 1595 1595 1596 1597 1597 1598 1598 1599 1599 1600 1600 1601 1601 1602 1602 1602 1602 1603 1603 1603 1603 1603 1603 1603 1603 1603 1603 1602 1601 1600
1480 1482 1484 1487 1491 1495 1498 1501 1503 1506 1509 1511 1513 1516 1518 1522 1525 1528 1531 1533 1536 1538 1540 1543 1545 1547 1549 1552 1555 1558 1560 1562 1563 1565 1567 1569 1571 1572 1574 1576 1577 1579 1581 1582 1583 1584 1586 1587 1588 1589 1590 1591 1592 1593 1593 1594 1595 1595 1596 1597 1597 1598 1598 1599 1600 1600 1600 1601 1601 1602 1602 1602 1603 1603 1603 1603 1603 1603 1603 1603 1603 1603 1602 1602 1601
1476 1478 1481 1485 1489 1492 1495 1498 1500 1502 1505 1508 1511 1514 1517 1520 1523 1525 1528 1530 1533 1536 1538 1541 1543 1545 1547 1549 1552 1555 1557 1560 1562 1564 1566 1567 1569 1570 1572 1574 1576 1578 1579 1580 1582 1583 1585 1586 1587 1588 1589 1590 1591 1592 1592 1593 1594 1595 1595 1596 1597 1598 1598 1599 1599 1600 1600 1600 1601 1601 1601 1602 1602 1602 1602 1603 1603 1603 1603 1603 1603 1602 1602 1602 1602
1475 1476 1480 1483 1485 1489 1491 1494 1498 1500 1503 1506 1509 1513 1515 1518 1521 1523 1526 1528 1531 1534 1536 1539 1541 1543 1545 1547 1550 1552 1555 1557 1560 1562 1564 1565 1567 1568 1570 1572 1574 1576 1578 1579 1581 1582 1583 1585 1586 1587 1588 1589 1590 1591 1591 1592 1593 1594 1594 1595 1596 1597 1597 1598 1599 1599 1600 1600 1600 1600 1601 1601 1602 1602 1602 1602 1602 1602 1602 1602 1602 1602 1602 1602 1602
1472 1474 1476 1478 1481 1484 1487 1491 1494 1497 1501 1504 1508 1511 1513 1516 1518 1521 1524 1527 1529 1532 1534 1536 1538 1540 1543 1545 1548 1550 1553 1555 1558 1560 1562 1563 1565 1567 1568 1570 1572 1574 1576 1577 1579 1580 1582 1583 1585 1586 1587 1588 1589 1589 1590 1591 1592 1593 1593 1594 1595 1596 1596 1597 1598 1598 1599 1599 1599 1600 1600 1600 1601 1601 1601 1602 1602 1602 1602 1602 1602 1602 1602 1602 1601
1467 1469 1471 1474 1477 1481 1485 1489 1493 1496 1500 1503 1506 1508 1511 1513 1516 1518 1521 1524 1526 1529 1531 1533 1536 1538 1540 1542 1545 1548 1551 1553 1556 1558 1560 1561 1563 1565 1567 1568 1570 1572 1574 1575 1577 1579 1580 1582 1583 1584 1585 1586 1587 1588 1589 1590 1591 1591 1592 1593 1594 1595 1595 1596 1597 1597 1598 1598 1599 1599 1599 1600 1600 1600 1601 1601 1601 1601 1601 1601 1602 1602 1602 1602 1601
1466 1468 1469 1472 1475 1478 1482 1486 1490 1494 1497 1500 1503 1506 1508 1511 1513 1516 1518 1521 1523 1526 1528 1531 1533 1536 1538 1540 1543 1546 1548 1551 1553 1555 1557 1559 1561 1563 1565 1567 1568 1570 1572 1573 1575 1577 1578 1580 1581 1582 1584 1585 1586 1587 1588 1589 1589 1590 1591 1592 1593 1593 1594 1595 1595 1596 1596 1597 1598 1598 1598 1599 1600 1600 1600 1600 1601 1601 1601 1601 1601 1601 1601 1601 1601
1469 1472 1474 1475 1477 1479 1481 1484 1488 1491 1493 1496 1499 1502 1505 1507 1510 1513 1515 1518 1521 1523 1526 1529 1531 1533 1535 1538 1541 1543 1546 1548 1550 1553 1555 1557 1559 1561 1563 1564 1566 1568 1570 1571 1573 1575 1576 1578 1579 1580 1582 1583 1584 1585 1586 1587 1588 1589 1589 1590 1591 1592 1593 1593 1594 1595 1595 1596 1596 1597 1597 1598 1599 1599 1599 1599 1600 1600 1600 1600 1600 1600 1600 1600 1600
1470 1474 1478 1480 1482 1484 1485 1485 1486 1488 1490 1493 1495 1498 1501 1504 1507 1510 1512 1515 1518 1521 1524 1527 1529 1531 1533 1536 1538 1540 1543 1545 1547 1549 1551 1554 1556 1558 1560 1562 1564 1566 1567 1569 1571 1572 1574 1576 1577 1578 1579 1581 1582 1583 1584 1586 1586 1587 1588 1589 1590 1590 1591 1592 1593 1593 1594 1595 1595 1596 1596 1598 1598 1598 1598 1599 1599 1599 1599 1599 1599 1599 1599 1600 1600
1472 1473 1476 1480 1484 1486 1488 1488 1488 1488 1488 1490 1492 1496 1498 1501 1504 1506 1509 1513 1516 1519 1521 1524 1526 1529 1531 1533 1535 1537 1539 1541 1543 1545 1548 1551 1553 1556 1558 1560 1561 1563 1564 1566 1568 1570 1571 1573 1574 1576 1577 1578 1580 1581 1582 1583 1585 1586 1586 1587 1588 1589 1590 1590 1591 1592 1593 1594 1594 1595 1595 1596 1597 1597 1597 1598 1598 1598 1599 1599 1599 1599 1599 1599 1599
1477 1476 1476 1478 1481 1483 1487 1489 1491 1492 1492 1492 1492 1494 1496 1499 1502 1504 1507 1510 1513 1516 1519 1521 1523 1526 1527 1529 1531 1533 1535 1537 1540 1542 1545 1547 1550 1552 1555 1556 1559 1560 1562 1563 1565 1567 1568 1570 1572 1573 1575 1576 1578 1579 1580 1581 1583 1584 1585 1585 1586 1587 1588 1589 1590 1591 1591 1592 1593 1593 1594 1595 1595 1596 1596 1597 1597 1598 1598 1598 1598 1598 1598 1598 1598
1484 1481 1479 1479 1479 1482 1484 1487 1490 1493 1495 1496 1496 1496 1497 1499 1502 1504 1506 1509 1511 1514 1516 1518 1520 1522 1524 1526 1528 1529 1531 1534 1537 1539 1542 1545 1547 1549 1551 1553 1555 1557 1559 1561 1562 1564 1566 1567 1569 1571 1572 1574 1575 1576 1578 1579 1580 1581 1582 1583 1584 1585 1586 1587 1588 1589 1590 1591 1591 1592 1593 1593 1594 1594 1595 1596 1596 1597 1597 1597 1597 1598 1598 1597 1597
1487 1485 1483 1482 1482 1483 1484 1485 1487 1489 1492 1495 1497 1498 1500 1501 1502 1504 1506 1508 1510 1512 1514 1516 1518 1519 1520 1522 1524 1527 1529 1532 1534 1537 1539 1541 1543 1545 1547 1550 1552 1554 1556 1558 1559 1561 1563 1564 1566 1567 1569 1571 1572 1573 1575 1576 1578 1579 1580 1581 1582 1583 1584 1585 1586 1587 1588 1589 1589 1590 1591 1592 1592 1593 1594 1594 1595 1595 1596 1596 1596 1597 1597 1596 1596
1491 1490 1488 1487 1486 1486 1486 1486 1487 1487 1489 1491 1493 1496 1499 1500 1502 1503 1505 1507 1509 1511 1512 1514 1515 1516 1518 1520 1523 1525 1527 1529 1532 1534 1536 1538 1540 1542 1545 1547 1548 1550 1552 1554 1556 1558 1560 1561 1563 1564 1566 1567 1568 1570 1571 1573 1575 1576 1577 1578 1580 1581 1582 1583 1584 1585 1585 1586 1587 1588 1589 1590 1591 1591 1592 1593 1593 1594 1594 1594 1595 1595 1595 1595 1595
1495 1494 1493 1491 1490 1489 1489 1489 1488 1488 1488 1489 1491 1493 1495 1497 1500 1501 1503 1505 1507 1509 1510 1512 1513 1514 1516 1519 1521 1523 1525 1527 1529 1531 1533 1535 1537 1539 1542 1543 1545 1547 1549 1551 1553 1555 1556 1557 1559 1560 1562 1564 1565 1566 1568 1570 1572 1573 1575 1576 1577 1578 1579 1580 1581 1582 1583 1584 1585 1586 1587 1588 1589 1590 1591 1591 1592 1593 1593 1593 1594 1594 1594 1594 1594
1498 1497 1496 1494 1492 1492 1491 1491 1490 1490 1490 1489 1489 1490 1492 1494 1497 1499 1501 1502 1504 1505 1507 1508 1509 1511 1514 1517 1518 1520 1522 1524 1525 1527 1529 1532 1534 1536 1538 1540 1542 1544 1546 1547 1549 1551 1552 1554 1555 1557 1558 1559 1561 1562 1564 1567 1569 1570 1572 1573 1574 1575 1576 1577 1578 1579 1580 1581 1583 1584 1585 1586 1587 1588 1589 1590 1590 1591 1591 1592 1592 1593 1593 1593 1592
1501 1500 1498 1496 1494 1493 1493 1493 1493 1492 1492 1491 1490 1489 1490 1492 1494 1496 1499 1500 1501 1501 1503 1504 1506 1509 1511 1513 1515 1517 1519 1520 1522 1523 1525 1528 1531 1533 1535 1537 1538 1540 1542 1544 1545 1546 1548 1550 1552 1553 1554 1555 1557 1559 1561 1563 1565 1567 1568 1569 1570 1572 1573 1574 1575 1576 1577 1578 1580 1581 1582 1583 1584 1585 1587 1588 1588 1589 1590 1590 1591 1591 1591 1591 1591
1503 1502 1500 1498 1496 1495 1495 1495 1494 1494 1493 1492 1491 1490 1489 1489 1490 1492 1495 1497 1498 1498 1499 1501 1503 1506 1508 1510 1512 1514 1515 1517 1518 1520 1522 1525 1527 1529 1531 1533 1534 1537 1539 1540 1541 1543 1544 1546 1548 1549 1550 1552 1553 1555 1557 1559 1561 1563 1564 1566 1567 1568 1569 1570 1571 1573 1574 1575 1577 1578 1579 1580 1582 1583 1584 1585 1586 1587 1587 1588 1588 1589 1589 1589 1589
1505 1505 1502 1500 1498 1497 1496 1496 1495 1495 1494 1493 1492 1491 1489 1488 1488 1489 1491 1493 1495 1496 1497 1498 1500 1502 1504 1507 1509 1511 1512 1514 1516 1518 1520 1522 1524 1525 1527 1529 1531 1533 1535 1536 1537 1539 1540 1542 1543 1545 1546 1548 1549 1551 1553 1555 1556 1558 1560 1562 1563 1564 1565 1566 1568 1569 1570 1572 1573 1575 1576 1577 1579 1580 1581 1582 1582 1583 1584 1585 1585 1586 1586 1587 1587
1508 1507 1504 1501 1499 1498 1497 1495 1495 1496 1495 1493 1492 1491 1489 1488 1488 1488 1489 1490 1492 1494 1495 1497 1498 1499 1501 1503 1505 1507 1509 1511 1513 1515 1517 1518 1520 1522 1523 1525 1527 1529 1530 1532 1533 1535 1536 1537 1539 1540 1542 1543 1544 1547 1549 1550 1552 1554 1556 1557 1559 1560 1561 1562 1564 1565 1567 1568 1570 1571 1572 1573 1574 1575 1576 1578 1579 1580 1580 1581 1581 1582 1583 1583 1584
1509 1507 1504 1502 1500 1498 1497 1495 1496 1496 1495 1493 1492 1490 1490 1489 1488 1487 1487 1488 1489 1491 1492 1494 1496 1497 1499 1500 1501 1503 1505 1507 1509 1511 1513 1514 1516 1517 1519 1522 1523 1525 1526 1528 1529 1530 1531 1532 1534 1536 1537 1538 1540 1542 1544 1545 1547 1550 1552 1553 1555 1556 1557 1558 1560 1562 1563 1564 1566 1567 1568 1569 1570 1571 1572 1573 1575 1576 1576 1577 1577 1578 1578 1579 1579
1508 1506 1504 1503 1501 1498 1497 1496 1496 1496 1495 1493 1492 1491 1490 1489 1488 1486 1486 1486 1487 1488 1489 1491 1493 1495 1497 1498 1499 1499 1501 1503 1505 1507 1509 1510 1512 1514 1516 1518 1520 1521 1522 1523 1524 1526 1527 1528 1530 1531 1532 1533 1534 1537 1539 1541 1543 1545 1547 1549 1551 1552 1554 1555 1556 1558 1559 1560 1562 1562 1564 1565 1565 1567 1568 1570 1571 1572 1572 1573 1573 1574 1574 1574 1575
1506 1504 1503 1502 1501 1498 1497 1497 1495 1496 1496 1493 1491 1490 1489 1488 1487 1485 1485 1485 1485 1486 1487 1488 1489 1491 1494 1495 1497 1498 1499 1500 1502 1503 1505 1506 1508 1510 1512 1514 1516 1517 1518 1520 1521 1522 1523 1524 1525 1526 1527 1528 1529 1532 1535 1537 1539 1541 1543 1545 1547 1548 1550 1551 1552 1554 1555 1556 1557 1558 1559 1561 1562 1563 1565 1566 1568 1568 1569 1569 1570 1570 1571 1570 1571
1505 1503 1501 1501 1500 1498 1497 1496 1495 1494 1494 1492 1491 1490 1489 1487 1485 1484 1483 1483 1483 1483 1484 1485 1486 1488 1489 1491 1493 1494 1496 1497 1498 1500 1501 1503 1505 1507 1509 1511 1512 1513 1514 1516 1517 1518 1519 1519 1520 1521 1523 1524 1525 1527 1530 1532 1535 1537 1539 1541 1543 1544 1545 1547 1548 1550 1551 1552 1553 1554 1555 1557 1558 1560 1561 1563 1564 1565 1566 1567 1568 1568 1568 1567 1568
1504 1503 1501 1499 1498 1496 1495 1494 1493 1493 1492 1490 1490 1489 1487 1485 1484 1483 1481 1481 1481 1481 1482 1483 1484 1485 1486 1487 1488 1490 1492 1494 1495 1497 1498 1500 1502 1504 1505 1507 1508 1509 1510 1512 1513 1514 1514 1515 1516 1517 1518 1519 1521 1523 1525 1527 1530 1532 1534 1536 1538 1539 1541 1542 1544 1545 1547 1548 1549 1550 1551 1553 1555 1557 1558 1560 1561 1562 1563 1564 1565 1565 1565 1565 1566
1502 1501 1501 1499 1496 1494 1493 1492 1492 1492 1491 1489 1487 1486 1485 1484 1482 1480 1479 1479 1479 1479 1480 1480 1481 1481 1483 1484 1485 1486 1488 1490 1492 1494 1495 1497 1498 1500 1501 1503 1504 1505 1506 1507 1508 1509 1510 1511 1512 1513 1514 1515 1516 1518 1520 1522 1525 1527 1529 1532 1533 1534 1536 1538 1540 1541 1542 1543 1545 1546 1548 1550 1552 1554 1556 1557 1558 1559 1560 1561 1562 1562 1562 1563 1564
1501 1499 1499 1497 1494 1492 1491 1491 1491 1491 1490 1488 1486 1484 1483 1482 1480 1478 1476 1476 1476 1477 1477 1477 1478 1479 1480 1480 1482 1483 1484 1485 1488 1489 1491 1492 1494 1496 1497 1498 1500 1501 1502 1503 1504 1505 1506 1506 1508 1509 1510 1511 1512 1514 1516 1518 1520 1522 1524 1526 1528 1530 1532 1534 1536 1537 1538 1539 1540 1542 1544 1546 1549 1551 1553 1554 1556 1557 1557 1558 1558 1559 1560 1561 1561
1499 1497 1496 1494 1492 1490 1489 1489 1489 1489 1487 1485 1483 1481 1480 1479 1477 1475 1473 1473 1473 1474 1474 1474 1475 1476 1477 1477 1478 1480 1481 1482 1483 1485 1486 1487 1489 1491 1492 1494 1495 1496 1497 1498 1499 1500 1501 1502 1503 1504 1505 1507 1508 1509 1511 1512 1514 1516 1519 1521 1523 1525 1528 1530 1531 1532 1533 1535 1536 1538 1540 1543 1545 1547 1549 1551 1553 1554 1554 1554 1555 1556 1557 1557 1557
1496 1495 1493 1492 1490 1488 1487 1487 1487 1486 1484 1482 1480 1477 1476 1475 1474 1472 1471 1470 1470 1471 1471 1471 1472 1472 1473 1474 1475 1476 1478 1479 1480 1481 1482 1483 1484 1486 1487 1489 1490 1491 1492 1493 1494 1496 1497 1497 1498 1499 1500 1502 1503 1505 1506 1507 1509 1511 1513 1515 1518 1520 1523 1525 1526 1527 1529 1531 1532 1534 1536 1539 1541 1543 1545 1547 1548 1550 1550 1551 1552 1553 1554 1554 1554
1493 1492 1490 1489 1487 1485 1483 1483 1482 1481 1479 1477 1476 1473 1472 1471 1470 1469 1468 1467 1466 1467 1468 1468 1468 1469 1469 1470 1470 1472 1473 1475 1476 1477 1478 1478 1480 1481 1482 1484 1485 1486 1488 1488 1489 1491 1492 1492 1493 1494 1495 1497 1499 1500 1501 1502 1504 1506 1508 1510 1513 1515 1518 1520 1522 1523 1525 1526 1528 1530 1533 1535 1537 1539 1541 1542 1544 1545 1546 1548 1550 1550 1550 1550 1550
1490 1489 1488 1487 1484 1481 1479 1477 1477 1476 1474 1471 1471 1470 1469 1468 1467 1466 1465 1464 1463 1464 1464 1465 1465 1465 1465 1465 1466 1466 1468 1470 1472 1473 1473 1474 1475 1476 1477 1479 1480 1482 1483 1484 1484 1486 1486 1487 1488 1489 1490 1493 1495 1496 1497 1498 1500 1501 1503 1505 1508 1510 1513 1516 1517 1519 1521 1522 1524 1526 1528 1530 1532 1534 1536 1537 1538 1540 1543 1544 1546 1546 1546 1545 1545
1487 1485 1485 1484 1482 1479 1477 1474 1472 1471 1469 1467 1466 1466 1466 1465 1463 1462 1461 1460 1460 1460 1461 1461 1461 1460 1460 1460 1460 1461 1463 1464 1466 1468 1469 1470 1471 1472 1473 1474 1476 1477 1478 1479 1480 1481 1482 1483 1484 1485 1486 1489 1490 1491 1492 1493 1494 1496 1497 1500 1503 1505 1508 1511 1513 1514 1516 1518 1519 1521 1523 1525 1527 1529 1530 1532 1533 1535 1538 1540 1541 1541 1541 1540 1540
1482 1482 1481 1480 1479 1477 1475 1472 1469 1467 1465 1464 1463 1463 1463 1462 1460 1459 1457 1456 1455 1456 1457 1457 1457 1456 1455 1455 1455 1456 1458 1459 1461 1462 1463 1464 1465 1467 1468 1469 1470 1472 1473 1474 1475 1475 1476 1478 1479 1480 1482 1484 1485 1485 1486 1487 1489 1491 1492 1495 1497 1500 1503 1506 1508 1510 1512 1514 1516 1517 1518 1520 1522 1523 1524 1526 1528 1530 1532 1534 1535 1535 1535 1535 1535
1478 1478 1477 1476 1476 1474 1472 1469 1467 1465 1463 1461 1461 1461 1461 1460 1458 1456 1454 1451 1450 1451 1452 1453 1452 1451 1450 1450 1451 1452 1453 1454 1455 1457 1458 1459 1460 1461 1463 1463 1465 1466 1467 1468 1469 1470 1471 1473 1474 1475 1477 1478 1478 1479 1480 1482 1485 1486 1488 1490 1492 1494 1497 1501 1504 1507 1509 1511 1512 1513 1514 1515 1516 1518 1519 1521 1523 1525 1526 1527 1528 1528 1528 1528 1529
1474 1474 1473 1473 1473 1472 1470 1468 1466 1464 1462 1459 1458 1458 1458 1458 1456 1453 1450 1448 1447 1448 1449 1449 1448 1448 1447 1447 1447 1447 1449 1450 1451 1452 1453 1454 1455 1456 1457 1458 1459 1461 1461 1463 1464 1465 1466 1469 1470 1470 1472 1473 1473 1474 1477 1479 1481 1482 1483 1485 1487 1490 1493 1497 1500 1503 1506 1507 1507 1508 1509 1510 1512 1513 1514 1516 1517 1519 1520 1520 1520 1520 1520 1520 1521
1471 1470 1469 1469 1469 1469 1468 1467 1465 1463 1462 1459 1456 1455 1456 1455 1453 1450 1447 1445 1445 1446 1446 1446 1445 1444 1444 1444 1443 1444 1445 1446 1446 1447 1448 1448 1449 1451 1452 1453 1454 1455 1456 1457 1458 1460 1462 1464 1465 1466 1468 1469 1470 1472 1474 1476 1477 1479 1480 1482 1484 1487 1490 1492 1496 1499 1501 1501 1502 1503 1504 1506 1507 1508 1509 1510 1511 1513 1513 1514 1514 1513 1512 1511 1511